Time,TemperatureF,DewpointF,PressureIn,WindDirection,WindDirectionDegrees,WindSpeedMPH,WindSpeedGustMPH,Humidity,HourlyPrecipIn,Conditions,Clouds,dailyrainin,SoftwareType,DateUTC
2013-03-30 00:00:00,62.8,57.9,28.49,East,90,8.0,12.0,84,0.00,,,0.00,meteohub,2013-03-30 05:00:00,
2013-03-30 00:05:00,63.0,58.1,28.48,East,90,8.0,11.0,84,0.00,,,0.00,meteohub,2013-03-30 05:05:00,
2013-03-30 00:10:00,62.4,57.6,28.48,East,90,5.0,11.0,84,0.00,,,0.00,meteohub,2013-03-30 05:10:00,
2013-03-30 00:15:00,62.4,57.6,28.48,SE,135,10.0,12.0,84,0.00,,,0.00,meteohub,2013-03-30 05:15:00,
2013-03-30 00:20:00,62.6,57.7,28.48,SE,135,8.0,12.0,84,0.00,,,0.00,meteohub,2013-03-30 05:20:00,
2013-03-30 00:25:00,62.2,57.4,28.49,SE,135,8.0,10.0,84,0.00,,,0.00,meteohub,2013-03-30 05:25:00,
2013-03-30 00:31:00,62.1,57.6,28.49,SE,135,7.0,11.0,85,0.00,,,0.00,meteohub,2013-03-30 05:31:00,
2013-03-30 00:36:00,62.1,57.6,28.49,East,90,8.0,12.0,85,0.00,,,0.00,meteohub,2013-03-30 05:36:00,
2013-03-30 00:41:00,62.1,57.6,28.48,NE,45,9.0,12.0,85,0.00,,,0.00,meteohub,2013-03-30 05:41:00,
2013-03-30 00:46:00,61.7,57.4,28.48,East,90,6.0,12.0,86,0.00,,,0.00,meteohub,2013-03-30 05:46:00,
2013-03-30 00:51:00,61.5,57.6,28.48,East,90,6.0,10.0,87,0.00,,,0.00,meteohub,2013-03-30 05:51:00,
2013-03-30 00:56:00,61.2,57.2,28.48,East,90,8.0,9.0,87,0.00,,,0.00,meteohub,2013-03-30 05:56:00,
2013-03-30 01:01:00,61.2,57.6,28.48,East,90,8.0,8.0,88,0.00,,,0.00,meteohub,2013-03-30 06:01:00,
2013-03-30 01:06:00,61.0,57.4,28.47,SE,135,9.0,9.0,88,0.00,,,0.00,meteohub,2013-03-30 06:06:00,
2013-03-30 01:11:00,60.6,57.4,28.47,SE,135,6.0,9.0,89,0.00,,,0.00,meteohub,2013-03-30 06:11:00,
2013-03-30 01:17:00,60.4,57.2,28.47,East,90,6.0,9.0,89,0.00,,,0.00,meteohub,2013-03-30 06:17:00,
2013-03-30 01:22:00,60.1,56.8,28.47,East,90,8.0,9.0,89,0.00,,,0.00,meteohub,2013-03-30 06:22:00,
2013-03-30 01:27:00,59.9,57.0,28.47,East,90,10.0,10.0,90,0.00,,,0.00,meteohub,2013-03-30 06:27:00,
2013-03-30 01:32:00,59.9,57.0,28.47,East,90,8.0,10.0,90,0.00,,,0.00,meteohub,2013-03-30 06:32:00,
2013-03-30 01:37:00,59.7,57.0,28.48,East,90,5.0,10.0,91,0.00,,,0.00,meteohub,2013-03-30 06:37:00,
2013-03-30 01:42:00,59.7,57.0,28.47,East,90,6.0,10.0,91,0.00,,,0.00,meteohub,2013-03-30 06:42:00,
2013-03-30 01:47:00,59.2,56.5,28.47,East,90,6.0,9.0,91,0.00,,,0.00,meteohub,2013-03-30 06:47:00,
2013-03-30 01:52:00,59.4,57.0,28.47,East,90,5.0,9.0,92,0.00,,,0.00,meteohub,2013-03-30 06:52:00,
2013-03-30 01:57:00,58.8,56.5,28.47,East,90,5.0,8.0,92,0.00,,,0.00,meteohub,2013-03-30 06:57:00,
2013-03-30 02:02:00,58.8,56.5,28.47,East,90,6.0,8.0,92,0.00,,,0.00,meteohub,2013-03-30 07:02:00,
2013-03-30 02:07:00,58.6,56.7,28.47,East,90,6.0,8.0,93,0.00,,,0.00,meteohub,2013-03-30 07:07:00,
2013-03-30 02:12:00,58.3,56.3,28.47,East,90,5.0,8.0,93,0.00,,,0.00,meteohub,2013-03-30 07:12:00,
2013-03-30 02:17:00,58.5,56.5,28.47,East,90,5.0,8.0,93,0.00,,,0.00,meteohub,2013-03-30 07:17:00,
2013-03-30 02:22:00,58.1,56.1,28.47,East,90,8.0,8.0,93,0.00,,,0.00,meteohub,2013-03-30 07:22:00,
2013-03-30 02:27:00,57.9,56.1,28.47,SE,135,6.0,8.0,94,0.00,,,0.00,meteohub,2013-03-30 07:27:00,
2013-03-30 02:32:00,57.9,56.1,28.47,East,90,6.0,8.0,94,0.00,,,0.00,meteohub,2013-03-30 07:32:00,
2013-03-30 02:37:00,58.1,56.3,28.47,East,90,6.0,8.0,94,0.00,,,0.00,meteohub,2013-03-30 07:37:00,
2013-03-30 02:42:00,57.7,55.9,28.47,East,90,4.0,7.0,94,0.00,,,0.00,meteohub,2013-03-30 07:42:00,
2013-03-30 02:47:00,57.9,55.9,28.47,East,90,4.0,7.0,93,0.00,,,0.00,meteohub,2013-03-30 07:47:00,
2013-03-30 02:52:00,57.4,55.4,28.47,East,90,6.0,7.0,93,0.00,,,0.00,meteohub,2013-03-30 07:52:00,
2013-03-30 02:57:00,57.6,55.6,28.47,East,90,4.0,6.0,93,0.00,,,0.00,meteohub,2013-03-30 07:57:00,
2013-03-30 03:02:00,57.2,55.2,28.47,East,90,5.0,8.0,93,0.00,,,0.00,meteohub,2013-03-30 08:02:00,
2013-03-30 03:07:00,57.2,55.2,28.47,SE,135,6.0,8.0,93,0.00,,,0.00,meteohub,2013-03-30 08:07:00,
2013-03-30 03:12:00,56.8,54.5,28.47,East,90,4.0,6.0,92,0.00,,,0.00,meteohub,2013-03-30 08:12:00,
2013-03-30 03:17:00,56.3,54.0,28.47,East,90,6.0,6.0,92,0.00,,,0.00,meteohub,2013-03-30 08:17:00,
2013-03-30 03:22:00,55.8,53.8,28.47,East,90,5.0,6.0,93,0.00,,,0.00,meteohub,2013-03-30 08:22:00,
2013-03-30 03:27:00,55.8,54.1,28.47,East,90,8.0,8.0,94,0.00,,,0.00,meteohub,2013-03-30 08:27:00,
2013-03-30 03:32:00,55.4,53.8,28.47,East,90,6.0,8.0,94,0.00,,,0.00,meteohub,2013-03-30 08:32:00,
2013-03-30 03:37:00,55.6,54.1,28.47,East,90,7.0,8.0,95,0.00,,,0.00,meteohub,2013-03-30 08:37:00,
2013-03-30 03:42:00,55.4,54.0,28.47,East,90,3.0,8.0,95,0.00,,,0.00,meteohub,2013-03-30 08:42:00,
2013-03-30 03:47:00,55.0,53.6,28.47,East,90,5.0,8.0,95,0.00,,,0.00,meteohub,2013-03-30 08:47:00,
2013-03-30 03:52:00,55.0,54.0,28.47,East,90,4.0,8.0,96,0.00,,,0.00,meteohub,2013-03-30 08:52:00,
2013-03-30 03:58:00,54.9,53.8,28.47,East,90,6.0,7.0,96,0.00,,,0.00,meteohub,2013-03-30 08:58:00,
2013-03-30 04:03:00,54.9,53.8,28.46,East,90,5.0,7.0,96,0.00,,,0.00,meteohub,2013-03-30 09:03:00,
2013-03-30 04:08:00,55.0,54.1,28.47,SSE,158,4.0,7.0,97,0.00,,,0.00,meteohub,2013-03-30 09:08:00,
2013-03-30 04:13:00,54.7,53.6,28.46,East,90,6.0,7.0,96,0.00,,,0.00,meteohub,2013-03-30 09:13:00,
2013-03-30 04:18:00,55.0,54.1,28.47,East,90,7.0,7.0,97,0.00,,,0.00,meteohub,2013-03-30 09:18:00,
2013-03-30 04:23:00,55.2,54.3,28.47,East,90,8.0,8.0,97,0.00,,,0.00,meteohub,2013-03-30 09:23:00,
2013-03-30 04:28:00,55.4,54.5,28.47,ENE,68,4.0,8.0,97,0.00,,,0.00,meteohub,2013-03-30 09:28:00,
2013-03-30 04:33:00,55.6,54.7,28.46,East,90,6.0,8.0,97,0.00,,,0.00,meteohub,2013-03-30 09:33:00,
2013-03-30 04:34:00,55.4,54.5,28.46,SE,135,7.0,8.0,97,0.00,,,0.00,meteohub,2013-03-30 09:34:00,
2013-03-30 04:39:00,55.6,54.7,28.47,East,90,7.0,8.0,97,0.00,,,0.00,meteohub,2013-03-30 09:39:00,
2013-03-30 04:44:00,55.8,54.9,28.47,East,90,4.0,7.0,97,0.00,,,0.00,meteohub,2013-03-30 09:44:00,
2013-03-30 04:49:00,55.8,54.9,28.47,SE,135,8.0,8.0,97,0.00,,,0.00,meteohub,2013-03-30 09:49:00,
2013-03-30 04:54:00,55.8,54.7,28.47,SE,135,5.0,8.0,96,0.00,,,0.00,meteohub,2013-03-30 09:54:00,
2013-03-30 04:59:00,55.8,54.9,28.47,SE,135,8.0,8.0,97,0.00,,,0.00,meteohub,2013-03-30 09:59:00,
2013-03-30 05:04:00,56.1,55.0,28.47,South,180,4.0,8.0,96,0.00,,,0.00,meteohub,2013-03-30 10:04:00,
2013-03-30 05:09:00,56.1,55.0,28.47,SE,135,3.0,8.0,96,0.00,,,0.00,meteohub,2013-03-30 10:09:00,
2013-03-30 05:14:00,56.1,55.0,28.48,SE,135,5.0,8.0,96,0.00,,,0.00,meteohub,2013-03-30 10:14:00,
2013-03-30 05:19:00,56.5,55.4,28.48,East,90,5.0,6.0,96,0.00,,,0.00,meteohub,2013-03-30 10:19:00,
2013-03-30 05:24:00,56.8,55.4,28.48,East,90,4.0,7.0,95,0.00,,,0.00,meteohub,2013-03-30 10:24:00,
2013-03-30 05:29:00,56.7,55.2,28.48,East,90,5.0,7.0,95,0.00,,,0.00,meteohub,2013-03-30 10:29:00,
2013-03-30 05:34:00,56.7,55.2,28.48,East,90,6.0,7.0,95,0.00,,,0.00,meteohub,2013-03-30 10:34:00,
2013-03-30 05:39:00,56.3,54.9,28.47,East,90,6.0,8.0,95,0.00,,,0.00,meteohub,2013-03-30 10:39:00,
2013-03-30 05:44:00,55.9,54.3,28.48,East,90,8.0,8.0,94,0.00,,,0.00,meteohub,2013-03-30 10:44:00,
2013-03-30 05:49:00,55.4,54.0,28.48,SE,135,6.0,9.0,95,0.00,,,0.00,meteohub,2013-03-30 10:49:00,
2013-03-30 05:54:00,55.0,53.6,28.48,East,90,8.0,9.0,95,0.00,,,0.00,meteohub,2013-03-30 10:54:00,
2013-03-30 05:59:00,54.9,53.8,28.48,East,90,6.0,9.0,96,0.00,,,0.00,meteohub,2013-03-30 10:59:00,
2013-03-30 06:04:00,55.0,54.0,28.48,East,90,7.0,8.0,96,0.00,,,0.00,meteohub,2013-03-30 11:04:00,
2013-03-30 06:09:00,55.2,54.3,28.48,East,90,5.0,8.0,97,0.00,,,0.00,meteohub,2013-03-30 11:09:00,
2013-03-30 06:14:00,55.2,54.3,28.48,East,90,8.0,8.0,97,0.00,,,0.00,meteohub,2013-03-30 11:14:00,
2013-03-30 06:19:00,55.2,54.3,28.48,East,90,6.0,8.0,97,0.00,,,0.00,meteohub,2013-03-30 11:19:00,
2013-03-30 06:24:00,54.7,53.8,28.48,East,90,8.0,8.0,97,0.00,,,0.00,meteohub,2013-03-30 11:24:00,
2013-03-30 06:30:00,54.5,53.6,28.48,East,90,7.0,8.0,97,0.00,,,0.00,meteohub,2013-03-30 11:30:00,
2013-03-30 06:35:00,54.7,54.1,28.48,NE,45,5.0,8.0,98,0.00,,,0.00,meteohub,2013-03-30 11:35:00,
2013-03-30 06:39:00,54.7,54.1,28.48,SE,135,6.0,8.0,98,0.00,,,0.00,meteohub,2013-03-30 11:39:00,
2013-03-30 06:44:00,54.3,54.0,28.48,East,90,8.0,10.0,99,0.00,,,0.00,meteohub,2013-03-30 11:44:00,
2013-03-30 06:49:00,54.7,54.3,28.48,SE,135,6.0,10.0,99,0.00,,,0.00,meteohub,2013-03-30 11:49:00,
2013-03-30 06:55:00,54.5,54.1,28.48,East,90,8.0,10.0,99,0.00,,,0.00,meteohub,2013-03-30 11:55:00,
2013-03-30 07:00:00,54.7,54.3,28.48,East,90,7.0,8.0,99,0.00,,,0.00,meteohub,2013-03-30 12:00:00,
2013-03-30 07:05:00,54.7,54.3,28.48,East,90,4.0,8.0,99,0.00,,,0.00,meteohub,2013-03-30 12:05:00,
2013-03-30 07:10:00,54.3,54.0,28.48,East,90,5.0,8.0,99,0.00,,,0.00,meteohub,2013-03-30 12:10:00,
2013-03-30 07:15:00,54.5,54.1,28.48,ESE,113,6.0,8.0,99,0.00,,,0.00,meteohub,2013-03-30 12:15:00,
2013-03-30 07:20:00,54.1,53.8,28.49,East,90,4.0,8.0,99,0.00,,,0.00,meteohub,2013-03-30 12:20:00,
2013-03-30 07:25:00,53.8,53.4,28.49,East,90,4.0,8.0,99,0.00,,,0.00,meteohub,2013-03-30 12:25:00,
2013-03-30 07:30:00,53.6,53.2,28.49,East,90,5.0,8.0,99,0.00,,,0.00,meteohub,2013-03-30 12:30:00,
2013-03-30 07:35:00,53.8,53.4,28.49,East,90,5.0,6.0,99,0.00,,,0.00,meteohub,2013-03-30 12:35:00,
2013-03-30 07:40:00,54.0,53.6,28.49,NE,45,5.0,6.0,99,0.00,,,0.00,meteohub,2013-03-30 12:40:00,
2013-03-30 07:45:00,53.8,53.4,28.49,East,90,4.0,6.0,99,0.00,,,0.00,meteohub,2013-03-30 12:45:00,
2013-03-30 07:50:00,54.0,53.6,28.48,SE,135,9.0,9.0,99,0.00,,,0.00,meteohub,2013-03-30 12:50:00,
2013-03-30 07:55:00,54.5,54.1,28.49,East,90,7.0,8.0,99,0.00,,,0.00,meteohub,2013-03-30 12:55:00,
2013-03-30 08:00:00,54.7,54.3,28.48,SE,135,5.0,9.0,99,0.00,,,0.00,meteohub,2013-03-30 13:00:00,
2013-03-30 08:05:00,54.9,54.5,28.48,East,90,7.0,9.0,99,0.00,,,0.00,meteohub,2013-03-30 13:05:00,
2013-03-30 08:10:00,55.2,54.9,28.49,East,90,4.0,9.0,99,0.00,,,0.00,meteohub,2013-03-30 13:10:00,
2013-03-30 08:15:00,55.4,55.0,28.48,East,90,4.0,8.0,99,0.00,,,0.00,meteohub,2013-03-30 13:15:00,
2013-03-30 08:20:00,55.4,55.0,28.48,East,90,5.0,7.0,99,0.00,,,0.00,meteohub,2013-03-30 13:20:00,
2013-03-30 08:25:00,55.9,55.6,28.48,East,90,5.0,7.0,99,0.00,,,0.00,meteohub,2013-03-30 13:25:00,
2013-03-30 08:30:00,56.3,55.9,28.48,East,90,6.0,8.0,99,0.00,,,0.00,meteohub,2013-03-30 13:30:00,
2013-03-30 08:35:00,56.3,55.9,28.48,NE,45,7.0,8.0,99,0.00,,,0.00,meteohub,2013-03-30 13:35:00,
2013-03-30 08:40:00,57.0,56.7,28.48,East,90,5.0,8.0,99,0.00,,,0.00,meteohub,2013-03-30 13:40:00,
2013-03-30 08:45:00,57.2,56.8,28.48,East,90,4.0,8.0,99,0.00,,,0.00,meteohub,2013-03-30 13:45:00,
2013-03-30 08:50:00,57.9,57.6,28.48,East,90,5.0,7.0,99,0.00,,,0.00,meteohub,2013-03-30 13:50:00,
2013-03-30 08:55:00,58.5,57.9,28.48,East,90,7.0,8.0,98,0.00,,,0.00,meteohub,2013-03-30 13:55:00,
2013-03-30 09:00:00,59.0,58.1,28.48,East,90,6.0,8.0,97,0.00,,,0.00,meteohub,2013-03-30 14:00:00,
2013-03-30 09:05:00,59.0,57.9,28.48,East,90,4.0,8.0,96,0.00,,,0.00,meteohub,2013-03-30 14:05:00,
2013-03-30 09:10:00,59.4,58.3,28.47,East,90,5.0,7.0,96,0.00,,,0.00,meteohub,2013-03-30 14:10:00,
2013-03-30 09:15:00,60.1,58.6,28.48,East,90,4.0,6.0,95,0.00,,,0.00,meteohub,2013-03-30 14:15:00,
2013-03-30 09:20:00,60.3,58.5,28.48,East,90,5.0,7.0,94,0.00,,,0.00,meteohub,2013-03-30 14:20:00,
2013-03-30 09:25:00,60.8,58.8,28.48,SE,135,4.0,7.0,93,0.00,,,0.00,meteohub,2013-03-30 14:25:00,
2013-03-30 09:30:00,61.2,58.8,28.48,SE,135,4.0,7.0,92,0.00,,,0.00,meteohub,2013-03-30 14:30:00,
2013-03-30 09:35:00,61.9,59.5,28.48,East,90,4.0,6.0,92,0.00,,,0.00,meteohub,2013-03-30 14:35:00,
2013-03-30 09:40:00,62.2,59.2,28.48,SE,135,4.0,5.0,90,0.00,,,0.00,meteohub,2013-03-30 14:40:00,
2013-03-30 09:45:00,63.0,59.0,28.49,SE,135,4.0,5.0,87,0.00,,,0.00,meteohub,2013-03-30 14:45:00,
2013-03-30 09:50:00,63.3,59.4,28.48,East,90,3.0,4.0,87,0.00,,,0.00,meteohub,2013-03-30 14:50:00,
2013-03-30 09:55:00,64.2,59.9,28.49,SE,135,3.0,4.0,86,0.00,,,0.00,meteohub,2013-03-30 14:55:00,
2013-03-30 10:01:00,64.0,58.8,28.48,South,180,6.0,6.0,83,0.00,,,0.00,meteohub,2013-03-30 15:01:00,
2013-03-30 10:06:00,64.0,59.2,28.49,SW,225,6.0,6.0,84,0.00,,,0.00,meteohub,2013-03-30 15:06:00,
2013-03-30 10:11:00,63.7,58.8,28.49,SW,225,4.0,6.0,84,0.00,,,0.00,meteohub,2013-03-30 15:11:00,
2013-03-30 10:16:00,64.0,59.2,28.49,WNW,293,7.0,7.0,84,0.00,,,0.00,meteohub,2013-03-30 15:16:00,
2013-03-30 10:21:00,64.2,59.4,28.48,South,180,4.0,7.0,84,0.00,,,0.00,meteohub,2013-03-30 15:21:00,
2013-03-30 10:26:00,64.6,59.0,28.48,SW,225,6.0,7.0,82,0.00,,,0.00,meteohub,2013-03-30 15:26:00,
2013-03-30 10:32:00,64.8,59.2,28.48,South,180,4.0,7.0,82,0.00,,,0.00,meteohub,2013-03-30 15:32:00,
2013-03-30 10:37:00,65.5,59.5,28.48,SW,225,4.0,7.0,81,0.00,,,0.00,meteohub,2013-03-30 15:37:00,
2013-03-30 10:42:00,65.5,59.5,28.48,SW,225,4.0,6.0,81,0.00,,,0.00,meteohub,2013-03-30 15:42:00,
2013-03-30 10:47:00,66.4,59.4,28.48,SW,225,6.0,6.0,78,0.00,,,0.00,meteohub,2013-03-30 15:47:00,
2013-03-30 10:52:00,66.7,59.7,28.48,South,180,5.0,6.0,78,0.00,,,0.00,meteohub,2013-03-30 15:52:00,
2013-03-30 10:57:00,67.3,59.9,28.48,South,180,4.0,7.0,77,0.00,,,0.00,meteohub,2013-03-30 15:57:00,
2013-03-30 11:02:00,67.6,59.7,28.47,SE,135,2.0,7.0,76,0.00,,,0.00,meteohub,2013-03-30 16:02:00,
2013-03-30 11:03:00,68.2,60.3,28.48,SW,225,2.0,7.0,76,0.00,,,0.00,meteohub,2013-03-30 16:03:00,
2013-03-30 11:12:00,68.7,60.1,28.47,WSW,248,4.0,6.0,74,0.00,,,0.00,meteohub,2013-03-30 16:12:00,
2013-03-30 11:17:00,68.7,59.4,28.47,South,180,6.0,6.0,72,0.00,,,0.00,meteohub,2013-03-30 16:17:00,
2013-03-30 11:22:00,68.9,59.5,28.47,West,270,2.0,6.0,72,0.00,,,0.00,meteohub,2013-03-30 16:22:00,
2013-03-30 11:27:00,69.4,60.1,28.47,South,180,5.0,6.0,72,0.00,,,0.00,meteohub,2013-03-30 16:27:00,
2013-03-30 11:32:00,70.0,60.1,28.47,SW,225,5.0,6.0,71,0.00,,,0.00,meteohub,2013-03-30 16:32:00,
2013-03-30 11:37:00,70.0,59.4,28.47,SW,225,4.0,8.0,69,0.00,,,0.00,meteohub,2013-03-30 16:37:00,
2013-03-30 11:42:00,70.7,59.5,28.47,South,180,4.0,8.0,68,0.00,,,0.00,meteohub,2013-03-30 16:42:00,
2013-03-30 11:47:00,71.2,59.7,28.47,SW,225,2.0,8.0,67,0.00,,,0.00,meteohub,2013-03-30 16:47:00,
2013-03-30 11:52:00,71.4,59.9,28.48,South,180,2.0,4.0,67,0.00,,,0.00,meteohub,2013-03-30 16:52:00,
2013-03-30 11:57:00,72.0,59.2,28.48,SW,225,4.0,4.0,64,0.00,,,0.00,meteohub,2013-03-30 16:57:00,
2013-03-30 12:02:00,72.1,59.7,28.48,WSW,248,6.0,6.0,65,0.00,,,0.00,meteohub,2013-03-30 17:02:00,
2013-03-30 12:07:00,72.1,59.7,28.47,North,0,5.0,6.0,65,0.00,,,0.00,meteohub,2013-03-30 17:07:00,
2013-03-30 12:12:00,72.5,60.1,28.47,West,270,3.0,6.0,65,0.00,,,0.00,meteohub,2013-03-30 17:12:00,
2013-03-30 12:17:00,73.4,60.4,28.47,North,0,4.0,6.0,64,0.00,,,0.00,meteohub,2013-03-30 17:17:00,
2013-03-30 12:22:00,73.8,59.9,28.47,NW,315,4.0,5.0,62,0.00,,,0.00,meteohub,2013-03-30 17:22:00,
2013-03-30 12:27:00,73.2,59.0,28.47,South,180,3.0,6.0,61,0.00,,,0.00,meteohub,2013-03-30 17:27:00,
2013-03-30 12:32:00,73.8,59.9,28.47,South,180,3.0,6.0,62,0.00,,,0.00,meteohub,2013-03-30 17:32:00,
2013-03-30 12:37:00,73.9,59.2,28.46,West,270,3.0,7.0,60,0.00,,,0.00,meteohub,2013-03-30 17:37:00,
2013-03-30 12:42:00,74.1,59.4,28.46,NE,45,3.0,8.0,60,0.00,,,0.00,meteohub,2013-03-30 17:42:00,
2013-03-30 12:47:00,75.7,59.9,28.46,North,0,4.0,8.0,58,0.00,,,0.00,meteohub,2013-03-30 17:47:00,
2013-03-30 12:52:00,76.3,59.4,28.46,NW,315,4.0,7.0,56,0.00,,,0.00,meteohub,2013-03-30 17:52:00,
2013-03-30 12:57:00,76.6,59.2,28.46,SW,225,6.0,6.0,55,0.00,,,0.00,meteohub,2013-03-30 17:57:00,
2013-03-30 13:02:00,76.3,59.4,28.46,NNW,338,2.0,7.0,56,0.00,,,0.00,meteohub,2013-03-30 18:02:00,
2013-03-30 13:07:00,76.3,58.5,28.45,ENE,68,11.0,11.0,54,0.00,,,0.00,meteohub,2013-03-30 18:07:00,
2013-03-30 13:12:00,76.5,59.5,28.45,NE,45,7.0,12.0,56,0.00,,,0.00,meteohub,2013-03-30 18:12:00,
2013-03-30 13:17:00,77.2,59.2,28.45,NW,315,4.0,12.0,54,0.00,,,0.00,meteohub,2013-03-30 18:17:00,
2013-03-30 13:22:00,77.2,59.7,28.45,North,0,6.0,12.0,55,0.00,,,0.00,meteohub,2013-03-30 18:22:00,
2013-03-30 13:27:00,77.7,59.2,28.45,NE,45,3.0,8.0,53,0.00,,,0.00,meteohub,2013-03-30 18:27:00,
2013-03-30 13:32:00,77.5,59.0,28.45,North,0,4.0,8.0,53,0.00,,,0.00,meteohub,2013-03-30 18:32:00,
2013-03-30 13:37:00,77.9,59.4,28.44,SW,225,1.0,8.0,53,0.00,,,0.00,meteohub,2013-03-30 18:37:00,
2013-03-30 13:42:00,79.0,59.9,28.44,SE,135,2.0,8.0,52,0.00,,,0.00,meteohub,2013-03-30 18:42:00,
2013-03-30 13:48:00,79.0,59.4,28.43,East,90,7.0,8.0,51,0.00,,,0.00,meteohub,2013-03-30 18:48:00,
2013-03-30 13:53:00,78.6,58.5,28.43,NE,45,6.0,8.0,50,0.00,,,0.00,meteohub,2013-03-30 18:53:00,
2013-03-30 13:58:00,78.4,59.4,28.43,East,90,5.0,8.0,52,0.00,,,0.00,meteohub,2013-03-30 18:58:00,
2013-03-30 14:03:00,78.8,59.2,28.43,NE,45,4.0,8.0,51,0.00,,,0.00,meteohub,2013-03-30 19:03:00,
2013-03-30 14:08:00,78.8,59.7,28.42,NW,315,2.0,8.0,52,0.00,,,0.00,meteohub,2013-03-30 19:08:00,
2013-03-30 14:13:00,78.8,58.6,28.42,East,90,10.0,10.0,50,0.00,,,0.00,meteohub,2013-03-30 19:13:00,
2013-03-30 14:18:00,78.6,59.0,28.41,NE,45,7.0,10.0,51,0.00,,,0.00,meteohub,2013-03-30 19:18:00,
2013-03-30 14:23:00,78.8,59.2,28.41,NE,45,10.0,12.0,51,0.00,,,0.00,meteohub,2013-03-30 19:23:00,
2013-03-30 14:28:00,78.6,58.5,28.41,North,0,5.0,12.0,50,0.00,,,0.00,meteohub,2013-03-30 19:28:00,
2013-03-30 14:33:00,79.2,58.3,28.41,ENE,68,8.0,11.0,49,0.00,,,0.00,meteohub,2013-03-30 19:33:00,
2013-03-30 14:38:00,79.3,59.7,28.40,North,0,4.0,11.0,51,0.00,,,0.00,meteohub,2013-03-30 19:38:00,
2013-03-30 14:43:00,79.3,57.9,28.40,ENE,68,5.0,11.0,48,0.00,,,0.00,meteohub,2013-03-30 19:43:00,
2013-03-30 14:48:00,79.3,57.9,28.40,NE,45,8.0,15.0,48,0.00,,,0.00,meteohub,2013-03-30 19:48:00,
2013-03-30 14:53:00,79.9,57.9,28.40,East,90,8.0,15.0,47,0.00,,,0.00,meteohub,2013-03-30 19:53:00,
2013-03-30 14:58:00,79.7,56.5,28.40,East,90,11.0,15.0,45,0.00,,,0.00,meteohub,2013-03-30 19:58:00,
2013-03-30 15:03:00,80.4,57.2,28.40,NE,45,9.0,13.0,45,0.00,,,0.00,meteohub,2013-03-30 20:03:00,
2013-03-30 15:08:00,80.4,57.2,28.40,East,90,5.0,14.0,45,0.00,,,0.00,meteohub,2013-03-30 20:08:00,
2013-03-30 15:13:00,80.4,57.2,28.39,NE,45,4.0,14.0,45,0.00,,,0.00,meteohub,2013-03-30 20:13:00,
2013-03-30 15:18:00,81.0,57.0,28.39,North,0,11.0,14.0,44,0.00,,,0.00,meteohub,2013-03-30 20:18:00,
2013-03-30 15:23:00,81.3,57.4,28.38,ENE,68,8.0,11.0,44,0.00,,,0.00,meteohub,2013-03-30 20:23:00,
2013-03-30 15:28:00,81.5,57.6,28.38,SE,135,8.0,11.0,44,0.00,,,0.00,meteohub,2013-03-30 20:28:00,
2013-03-30 15:33:00,81.3,56.7,28.39,East,90,7.0,11.0,43,0.00,,,0.00,meteohub,2013-03-30 20:33:00,
2013-03-30 15:38:00,81.5,58.1,28.38,East,90,7.0,11.0,45,0.00,,,0.00,meteohub,2013-03-30 20:38:00,
2013-03-30 15:43:00,80.8,56.8,28.39,NE,45,11.0,11.0,44,0.00,,,0.00,meteohub,2013-03-30 20:43:00,
2013-03-30 15:48:00,81.1,57.7,28.38,NW,315,5.0,11.0,45,0.00,,,0.00,meteohub,2013-03-30 20:48:00,
2013-03-30 15:53:00,82.0,58.6,28.38,North,0,2.0,11.0,45,0.00,,,0.00,meteohub,2013-03-30 20:53:00,
2013-03-30 15:59:00,82.8,58.6,28.38,West,270,4.0,11.0,44,0.00,,,0.00,meteohub,2013-03-30 20:59:00,
2013-03-30 16:04:00,82.9,56.8,28.38,North,0,6.0,8.0,41,0.00,,,0.00,meteohub,2013-03-30 21:04:00,
2013-03-30 16:09:00,82.6,55.8,28.38,NE,45,4.0,11.0,40,0.00,,,0.00,meteohub,2013-03-30 21:09:00,
2013-03-30 16:14:00,82.4,55.6,28.38,East,90,6.0,11.0,40,0.00,,,0.00,meteohub,2013-03-30 21:14:00,
2013-03-30 16:19:00,82.8,55.9,28.38,NE,45,6.0,11.0,40,0.00,,,0.00,meteohub,2013-03-30 21:19:00,
2013-03-30 16:24:00,82.6,55.8,28.37,NE,45,2.0,10.0,40,0.00,,,0.00,meteohub,2013-03-30 21:24:00,
2013-03-30 16:29:00,82.9,56.1,28.38,East,90,8.0,10.0,40,0.00,,,0.00,meteohub,2013-03-30 21:29:00,
2013-03-30 16:34:00,83.3,56.5,28.37,South,180,7.0,10.0,40,0.00,,,0.00,meteohub,2013-03-30 21:34:00,
2013-03-30 16:39:00,83.1,56.3,28.37,NW,315,10.0,10.0,40,0.00,,,0.00,meteohub,2013-03-30 21:39:00,
2013-03-30 16:44:00,83.5,55.9,28.37,NE,45,10.0,10.0,39,0.00,,,0.00,meteohub,2013-03-30 21:44:00,
2013-03-30 16:49:00,83.7,55.4,28.37,North,0,11.0,11.0,38,0.00,,,0.00,meteohub,2013-03-30 21:49:00,
2013-03-30 16:54:00,82.2,54.9,28.37,NE,45,11.0,11.0,39,0.00,,,0.00,meteohub,2013-03-30 21:54:00,
2013-03-30 16:59:00,81.1,55.2,28.37,NE,45,6.0,12.0,41,0.00,,,0.00,meteohub,2013-03-30 21:59:00,
2013-03-30 17:04:00,80.4,54.5,28.37,NW,315,5.0,12.0,41,0.00,,,0.00,meteohub,2013-03-30 22:04:00,
2013-03-30 17:09:00,80.1,54.9,28.37,NE,45,3.0,12.0,42,0.00,,,0.00,meteohub,2013-03-30 22:09:00,
2013-03-30 17:14:00,80.2,55.0,28.36,East,90,4.0,9.0,42,0.00,,,0.00,meteohub,2013-03-30 22:14:00,
2013-03-30 17:19:00,81.1,55.9,28.36,SE,135,3.0,7.0,42,0.00,,,0.00,meteohub,2013-03-30 22:19:00,
2013-03-30 17:24:00,82.2,55.6,28.36,East,90,2.0,9.0,40,0.00,,,0.00,meteohub,2013-03-30 22:24:00,
2013-03-30 17:29:00,82.9,55.4,28.36,East,90,7.0,9.0,39,0.00,,,0.00,meteohub,2013-03-30 22:29:00,
2013-03-30 17:34:00,83.3,54.3,28.36,NE,45,8.0,9.0,37,0.00,,,0.00,meteohub,2013-03-30 22:34:00,
2013-03-30 17:39:00,82.8,55.2,28.36,NW,315,2.0,11.0,39,0.00,,,0.00,meteohub,2013-03-30 22:39:00,
2013-03-30 17:44:00,83.5,54.5,28.36,East,90,2.0,11.0,37,0.00,,,0.00,meteohub,2013-03-30 22:44:00,
2013-03-30 17:49:00,83.7,54.0,28.36,NE,45,8.0,11.0,36,0.00,,,0.00,meteohub,2013-03-30 22:49:00,
2013-03-30 17:54:00,83.3,53.6,28.36,NE,45,7.0,8.0,36,0.00,,,0.00,meteohub,2013-03-30 22:54:00,
2013-03-30 17:59:00,83.1,53.4,28.36,NE,45,6.0,8.0,36,0.00,,,0.00,meteohub,2013-03-30 22:59:00,
2013-03-30 18:04:00,82.2,54.1,28.36,NE,45,7.0,8.0,38,0.00,,,0.00,meteohub,2013-03-30 23:04:00,
2013-03-30 18:09:00,82.0,55.9,28.36,NE,45,2.0,7.0,41,0.00,,,0.00,meteohub,2013-03-30 23:09:00,
2013-03-30 18:14:00,82.0,55.9,28.36,East,90,4.0,7.0,41,0.00,,,0.00,meteohub,2013-03-30 23:14:00,
2013-03-30 18:19:00,81.9,56.5,28.35,East,90,5.0,7.0,42,0.00,,,0.00,meteohub,2013-03-30 23:19:00,
2013-03-30 18:24:00,81.3,56.7,28.35,East,90,6.0,6.0,43,0.00,,,0.00,meteohub,2013-03-30 23:24:00,
2013-03-30 18:29:00,82.0,57.4,28.36,South,180,8.0,8.0,43,0.00,,,0.00,meteohub,2013-03-30 23:29:00,
2013-03-30 18:34:00,81.9,57.2,28.36,SE,135,8.0,8.0,43,0.00,,,0.00,meteohub,2013-03-30 23:34:00,
2013-03-30 18:39:00,80.6,57.4,28.36,East,90,7.0,9.0,45,0.00,,,0.00,meteohub,2013-03-30 23:39:00,
2013-03-30 18:44:00,79.9,57.2,28.36,NE,45,5.0,9.0,46,0.00,,,0.00,meteohub,2013-03-30 23:44:00,
2013-03-30 18:49:00,80.1,57.4,28.35,NE,45,5.0,9.0,46,0.00,,,0.00,meteohub,2013-03-30 23:49:00,
2013-03-30 18:55:00,79.9,57.2,28.35,East,90,9.0,9.0,46,0.00,,,0.00,meteohub,2013-03-30 23:55:00,
2013-03-30 19:00:00,79.9,57.9,28.35,East,90,5.0,8.0,47,0.00,,,0.00,meteohub,2013-03-31 00:00:00,
2013-03-30 19:05:00,79.5,57.6,28.35,East,90,4.0,9.0,47,0.00,,,0.00,meteohub,2013-03-31 00:05:00,
2013-03-30 19:10:00,79.2,57.2,28.36,East,90,7.0,9.0,47,0.00,,,0.00,meteohub,2013-03-31 00:10:00,
2013-03-30 19:15:00,78.8,57.4,28.36,East,90,4.0,8.0,48,0.00,,,0.00,meteohub,2013-03-31 00:15:00,
2013-03-30 19:20:00,78.3,57.6,28.36,East,90,5.0,8.0,49,0.00,,,0.00,meteohub,2013-03-31 00:20:00,
2013-03-30 19:25:00,78.1,57.4,28.35,SE,135,3.0,8.0,49,0.00,,,0.00,meteohub,2013-03-31 00:25:00,
2013-03-30 19:30:00,77.9,57.2,28.35,SE,135,4.0,8.0,49,0.00,,,0.00,meteohub,2013-03-31 00:30:00,
2013-03-30 19:35:00,77.7,57.0,28.36,East,90,2.0,5.0,49,0.00,,,0.00,meteohub,2013-03-31 00:35:00,
2013-03-30 19:40:00,77.5,56.8,28.36,East,90,3.0,4.0,49,0.00,,,0.00,meteohub,2013-03-31 00:40:00,
2013-03-30 19:45:00,77.5,57.4,28.36,East,90,3.0,4.0,50,0.00,,,0.00,meteohub,2013-03-31 00:45:00,
2013-03-30 19:50:00,77.0,57.6,28.36,East,90,2.0,4.0,51,0.00,,,0.00,meteohub,2013-03-31 00:50:00,
2013-03-30 19:55:00,76.8,57.4,28.36,East,90,3.0,4.0,51,0.00,,,0.00,meteohub,2013-03-31 00:55:00,
2013-03-30 20:00:00,76.5,57.0,28.36,East,90,2.0,4.0,51,0.00,,,0.00,meteohub,2013-03-31 01:00:00,
2013-03-30 20:05:00,75.9,57.0,28.37,East,90,3.0,4.0,52,0.00,,,0.00,meteohub,2013-03-31 01:05:00,
2013-03-30 20:10:00,75.7,57.4,28.37,East,90,3.0,4.0,53,0.00,,,0.00,meteohub,2013-03-31 01:10:00,
2013-03-30 20:15:00,75.9,57.6,28.37,SE,135,4.0,4.0,53,0.00,,,0.00,meteohub,2013-03-31 01:15:00,
2013-03-30 20:20:00,75.6,57.2,28.37,East,90,2.0,5.0,53,0.00,,,0.00,meteohub,2013-03-31 01:20:00,
2013-03-30 20:25:00,75.2,57.4,28.37,East,90,4.0,6.0,54,0.00,,,0.00,meteohub,2013-03-31 01:25:00,
2013-03-30 20:30:00,75.0,57.7,28.38,East,90,5.0,6.0,55,0.00,,,0.00,meteohub,2013-03-31 01:30:00,
2013-03-30 20:35:00,74.7,57.9,28.38,East,90,4.0,6.0,56,0.00,,,0.00,meteohub,2013-03-31 01:35:00,
2013-03-30 20:40:00,74.5,58.3,28.38,East,90,6.0,7.0,57,0.00,,,0.00,meteohub,2013-03-31 01:40:00,
2013-03-30 20:45:00,74.1,57.9,28.38,East,90,4.0,7.0,57,0.00,,,0.00,meteohub,2013-03-31 01:45:00,
2013-03-30 20:50:00,73.9,58.3,28.38,East,90,6.0,7.0,58,0.00,,,0.00,meteohub,2013-03-31 01:50:00,
2013-03-30 20:55:00,73.4,58.3,28.38,East,90,4.0,8.0,59,0.00,,,0.00,meteohub,2013-03-31 01:55:00,
2013-03-30 21:00:00,73.4,58.6,28.38,East,90,4.0,8.0,60,0.00,,,0.00,meteohub,2013-03-31 02:00:00,
2013-03-30 21:05:00,72.9,58.1,28.38,East,90,4.0,7.0,60,0.00,,,0.00,meteohub,2013-03-31 02:05:00,
2013-03-30 21:10:00,72.9,58.1,28.38,East,90,4.0,7.0,60,0.00,,,0.00,meteohub,2013-03-31 02:10:00,
2013-03-30 21:15:00,72.9,58.6,28.38,East,90,7.0,8.0,61,0.00,,,0.00,meteohub,2013-03-31 02:15:00,
2013-03-30 21:20:00,72.7,58.5,28.39,East,90,4.0,10.0,61,0.00,,,0.00,meteohub,2013-03-31 02:20:00,
2013-03-30 21:25:00,72.3,58.6,28.39,East,90,6.0,10.0,62,0.00,,,0.00,meteohub,2013-03-31 02:25:00,
2013-03-30 21:30:00,71.8,58.1,28.39,East,90,7.0,10.0,62,0.00,,,0.00,meteohub,2013-03-31 02:30:00,
2013-03-30 21:35:00,71.4,58.6,28.39,East,90,4.0,8.0,64,0.00,,,0.00,meteohub,2013-03-31 02:35:00,
2013-03-30 21:40:00,70.9,59.0,28.39,East,90,4.0,8.0,66,0.00,,,0.00,meteohub,2013-03-31 02:40:00,
2013-03-30 21:45:00,69.8,57.9,28.39,East,90,6.0,8.0,66,0.00,,,0.00,meteohub,2013-03-31 02:45:00,
2013-03-30 21:50:00,70.0,58.5,28.39,East,90,8.0,8.0,67,0.00,,,0.00,meteohub,2013-03-31 02:50:00,
2013-03-30 21:55:00,69.8,58.3,28.39,East,90,8.0,9.0,67,0.00,,,0.00,meteohub,2013-03-31 02:55:00,
2013-03-30 22:00:00,69.6,58.1,28.39,East,90,7.0,9.0,67,0.00,,,0.00,meteohub,2013-03-31 03:00:00,
2013-03-30 22:05:00,69.3,58.3,28.39,East,90,5.0,9.0,68,0.00,,,0.00,meteohub,2013-03-31 03:05:00,
2013-03-30 22:10:00,69.3,58.6,28.39,East,90,4.0,10.0,69,0.00,,,0.00,meteohub,2013-03-31 03:10:00,
2013-03-30 22:15:00,68.4,57.7,28.39,East,90,7.0,10.0,69,0.00,,,0.00,meteohub,2013-03-31 03:15:00,
2013-03-30 22:20:00,68.2,58.1,28.39,East,90,5.0,10.0,70,0.00,,,0.00,meteohub,2013-03-31 03:20:00,
2013-03-30 22:25:00,68.4,58.3,28.39,East,90,5.0,8.0,70,0.00,,,0.00,meteohub,2013-03-31 03:25:00,
2013-03-30 22:30:00,68.4,57.7,28.40,East,90,6.0,8.0,69,0.00,,,0.00,meteohub,2013-03-31 03:30:00,
2013-03-30 22:36:00,68.0,57.9,28.39,East,90,4.0,8.0,70,0.00,,,0.00,meteohub,2013-03-31 03:36:00,
2013-03-30 22:41:00,67.8,57.7,28.39,East,90,6.0,7.0,70,0.00,,,0.00,meteohub,2013-03-31 03:41:00,
2013-03-30 22:46:00,68.0,57.9,28.40,East,90,6.0,8.0,70,0.00,,,0.00,meteohub,2013-03-31 03:46:00,
2013-03-30 22:51:00,67.8,57.7,28.39,East,90,7.0,9.0,70,0.00,,,0.00,meteohub,2013-03-31 03:51:00,
2013-03-30 22:56:00,68.2,58.1,28.40,East,90,8.0,9.0,70,0.00,,,0.00,meteohub,2013-03-31 03:56:00,
2013-03-30 23:00:00,68.2,57.6,28.39,East,90,8.0,9.0,69,0.00,,,0.00,meteohub,2013-03-31 04:00:00,
2013-03-30 23:05:00,68.0,57.9,28.39,East,90,8.0,9.0,70,0.00,,,0.00,meteohub,2013-03-31 04:05:00,
2013-03-30 23:10:00,67.6,57.6,28.39,East,90,8.0,9.0,70,0.00,,,0.00,meteohub,2013-03-31 04:10:00,
2013-03-30 23:15:00,67.3,56.8,28.39,East,90,6.0,10.0,69,0.00,,,0.00,meteohub,2013-03-31 04:15:00,
2013-03-30 23:20:00,66.7,56.7,28.39,NE,45,8.0,10.0,70,0.00,,,0.00,meteohub,2013-03-31 04:20:00,
2013-03-30 23:25:00,66.4,57.0,28.38,East,90,8.0,10.0,72,0.00,,,0.00,meteohub,2013-03-31 04:25:00,
2013-03-30 23:30:00,65.8,57.0,28.38,East,90,8.0,10.0,73,0.00,,,0.00,meteohub,2013-03-31 04:30:00,
2013-03-30 23:35:00,66.2,57.7,28.38,SE,135,9.0,10.0,74,0.00,,,0.00,meteohub,2013-03-31 04:35:00,
2013-03-30 23:40:00,66.0,57.6,28.39,East,90,8.0,10.0,74,0.00,,,0.00,meteohub,2013-03-31 04:40:00,
2013-03-30 23:45:00,66.2,58.1,28.38,East,90,9.0,12.0,75,0.00,,,0.00,meteohub,2013-03-31 04:45:00,
2013-03-30 23:50:00,66.0,57.9,28.38,SE,135,8.0,12.0,75,0.00,,,0.00,meteohub,2013-03-31 04:50:00,
2013-03-30 23:55:00,65.7,57.6,28.38,East,90,7.0,11.0,75,0.00,,,0.00,meteohub,2013-03-31 04:55:00,